Location: Veytaux
(46.4185°N, 6.9320°E)
Time: 08:07:33
(UTC+00:00)

Lacrosse 5 - Pass Details

Date: 27 May 2022
Orbit: 714 x 724 km, 57.0° (Epoch: 09 March)

Event Time Altitude Azimuth Distance (km) Brightness Sun altitude
Exits shadow 00:07:00 25° 124° (SE) 1,443 3.2 -21.8°
Drops below altitude 10° 00:11:03 10° 71° (ENE) 2,216 4.7 -21.7°
Sets 00:13:47 0° 59° (ENE) 3,140 5.8 -21.6°
